SCP
0 0 0 0 0 0 0 0 0 0 0 0 0 0 0 0 0 0 0 0 0 0 0 0 0 0 0 0 0 0 0 0 0 0 0 0 0 0 0 0 0 0 0
0 0 0 0 0 0 0 0 0 0 0 0 0 0 0 0 0 0 0 0 0 0 0 0 0 0 0 0 0 0 0 0 0 0 0 0 0 0 0 0 0 0 0
0 0 0 0 0 0 0 0 0 0 0 0 0 0 0 0 0 0 0 0 0 0 0 0 0 0 0 0 0 0 0 0 0 0 0 0 0 0 0 0 0 0 0
0 0 0 0 0 0 0 0 0 0 0 0 0 0 0 0 0 0 0 0 0 0 0 0 0 0 0 0 0 0 0 0 0 0 0 0 0 0 0 0 0 0 0
0 0 0 0 0 0 0 0 0 0 0 0 0 0 0 0 0 0 0 0 0 0 0 0 0 0 0 0 0 0 0 0 0 0 0 0 0 0 0 0 0 0 0
0 0 0 0 0 0 0 0 0 0 0 0 0 0 0 0 0 0 0 0 0 0 0 0 0 0 0 0 0 0 0 0 0 0 0 0 0 0 0 0 0 0 0
0 0 0 0 0 0 0 0 0 0 0 0 0 0 0 0 0 0 0 0 0 0 0 0 0 0 0 0 0 0 0 0 0 0 0 0 0 0 0 0 0 0 0
0 0 0 0 0 0 0 0 0 0 0 0 0 0 0 0 0 0 0 0 0 0 0 0 0 0 0 0 0 0 0 0 0 0 0 0 0 0 0 0 0 0 0
0 0 0 0 0 0 0 0 0 0 0 0 0 0 0 0 0 0 0 0 0 0 0 0 0 0 0 0 0 0 0 0 0 0 0 0 0 0 0 0 0 0 0
0 0 0 0 0 0 0 0 0 0 0 0 0 0 0 0 0 0 0 0 0 0 0 0 0 0 0 0 0 0 0 0 0 0 0 0 0 0 0 0 0 0 0
0 0 0 0 0 0 0 0 0 0 0 0 0 0 0 0 0 0 0 0 0 0 0 0 0 0 0 0 0 0 0 0 0 0 0 0 0 0 0 0 0 0 0
0 0 0 0 0 0 0 0 0 0 0 0 0 0 0 0 0 0 0 0 0 0 0 0 0 0 0 0 0 0 0 0 0 0 0 0 0 0 0 0 0 0 0
0 0 0 0 0 0 0 0 0 0 0 0 0 0 0 0 0 0 0 0 0 0 0 0 0 0 0 0 0 0 0 0 0 0 0 0 0 0 0 0 0 0 0
0 0 0 0 0 0 0 0 0 0 0 0 0 0 0 0 0 0 0 0 0 0 0 0 0 0 0 0 0 0 0 0 0 0 0 0 0 0 0 0 0 0 0
0 0 0 0 0 0 0 0 0 0 0 0 0 0 0 0 0 0 0 0 0 0 0 0 0 0 0 0 0 0 0 0 0 0 0 0 0 0 0 0 0 0 0
0 0 0 0 0 0 0 0 0 0 0 0 0 0 0 0 0 0 0 0 0 0 0 0 0 0 0 0 0 0 0 0 0 0 0 0 0 0 0 0 0 0 0
0 0 0 0 0 0 0 0 0 0 0 0 0 0 0 0 0 0 0 0 0 0 0 0 0 0 0 0 0 0 0 0 0 0 0 0 0 0 0 0 0 0 0
0 0 0 0 0 0 0 0 0 0 0 0 0 0 0 0 0 0 0 0 0 0 0 0 0 0 0 0 0 0 0 0 0 0 0 0 0 0 0 0 0 0 0
0 0 0 0 0 0 0 0 0 0 0 0 0 0 0 0 0 0 0 0 0 0 0 0 0 0 0 0 0 0 0 0 0 0 0 0 0 0 0 0 0 0 0
0 0 0 0 0 0 0 0 0 0 0 0 0 0 0 0 0 0 0 0 0 0 0 0 0 0 0 0 -0 -0 -0 0 0 0 0 0 -0 -0 0 0 0 0 0
0 0 0 0 0 0 0 0 0 0 0 0 0 0 0 0 0 0 0 0 0 0 0 0 0 0 -0 -0 -0 -0 -0 -0 -0 -0 -0 -0 -0 -0 -0 0 0 0 0
0 0 0 0 0 0 0 0 0 0 0 0 0 0 0 0 0 0 0 0 0 0 0 0 -0 -0 -0 -0 0 0 0 -0 -0 -0 -0 -0 -0 -0 -0 0 0 0 0
0 0 0 0 0 0 0 0 0 0 0 0 0 0 0 0 0 0 0 0 0 0 -0 -0 -0 -0 -0 0 0 0 -0 0 0 0 -0 -0 -0 -0 -0 0 0 0 0
0 0 0 0 0 0 0 0 0 0 0 0 0 0 0 0 0 0 0 0 0 0 -0 -0 -0 -0 -0 -0 -0 -0 -0 0 0 0 0 -0 -0 -0 -0 0 0 0 0
0 0 0 0 0 0 0 0 0 0 0 0 0 0 0 0 0 0 0 0 0 0 0 0 0 0 -0 -0 -0 -0 -0 -0 0 0 0 0 0 0 0 0 0 0 0
0 0 0 0 0 0 0 0 0 0 0 0 0 0 0 0 0 0 0 0 0 0 0 0 0 0 -0 -0 -0 -0 -0 -0 0 0 0 0 0 0 0 0 0 0 0
Wind_Speed
2 2 1 1 2 1 2 2 2 2 2 2 2 3 3 3 3 2 2 5 6 9 10 11 12 12 11 11 10 10 10 10 9 8 8 8 7 7 8 8 8 8 8
2 2 2 2 2 2 2 2 3 2 2 1 2 2 2 2 2 2 2 2 5 7 8 9 10 11 12 11 10 9 9 9 9 8 8 8 8 8 8 8 8 9 9
2 2 2 2 2 2 2 2 2 1 1 1 2 2 1 2 2 2 2 2 2 5 7 8 8 9 11 11 10 10 10 10 10 9 9 8 8 8 8 8 9 9 9
2 2 2 2 2 1 2 2 2 1 2 2 1 1 1 1 2 2 2 2 2 2 5 7 8 8 10 11 11 11 11 11 10 10 10 9 9 9 9 9 9 9 10
2 2 2 2 2 2 2 2 2 2 2 2 2 1 1 1 1 1 1 1 2 2 2 5 7 8 9 9 10 11 11 12 11 11 11 10 10 10 10 10 10 10 10
1 1 1 2 2 2 2 2 3 2 2 2 1 0 0 1 1 1 1 1 1 2 2 3 3 5 8 8 9 9 11 11 11 11 11 11 11 11 11 11 11 11 11
1 1 1 1 2 2 3 3 2 3 2 2 1 0 0 0 1 1 1 0 0 1 1 2 2 2 3 6 7 8 10 10 11 12 12 11 11 12 12 12 12 12 12
2 1 1 1 1 2 2 3 3 2 2 3 2 1 1 1 1 1 1 1 1 1 1 2 2 3 2 2 4 8 9 10 12 12 12 12 12 12 12 12 12 12 12
2 1 1 0 1 1 2 2 3 4 3 3 2 3 3 3 1 0 1 1 1 1 1 1 2 2 2 2 2 5 8 10 11 12 12 12 12 12 12 12 12 12 11
3 3 2 1 1 1 1 2 2 2 3 3 2 2 1 2 2 1 0 0 1 1 1 1 2 2 2 2 4 7 9 9 11 11 12 12 12 12 11 12 12 11 10
4 4 3 2 2 1 1 1 1 2 2 3 3 2 2 1 2 2 2 1 1 1 1 1 2 2 2 3 4 8 10 10 10 11 11 11 11 12 12 11 11 10 10
3 5 4 3 3 2 2 1 1 2 2 3 3 3 3 3 3 3 3 2 1 1 2 2 2 2 2 3 6 11 11 11 10 10 11 11 11 11 11 11 10 10 9
3 4 4 3 3 3 2 2 1 1 2 3 3 3 3 3 2 3 4 3 2 1 2 2 2 3 3 3 5 12 12 13 12 11 10 10 10 10 10 10 9 9 8
3 4 3 3 4 3 3 2 2 2 1 2 2 3 2 2 2 3 4 4 3 2 2 2 2 3 4 4 7 9 9 12 12 11 10 10 9 9 10 10 9 9 8
3 4 4 4 4 4 3 2 2 2 2 2 1 1 1 1 2 2 2 4 5 4 3 2 2 3 4 5 7 6 7 11 12 11 11 11 10 10 9 9 9 8 7
4 4 4 4 4 4 3 3 2 2 2 2 1 1 1 1 1 2 2 2 2 4 4 3 3 4 5 6 8 6 7 11 10 10 10 10 9 8 8 8 8 7 6
4 4 4 4 4 3 3 3 3 3 3 2 2 1 1 1 0 1 2 2 3 4 6 5 5 6 7 7 6 5 5 4 5 8 9 8 8 7 6 6 6 5 4
4 4 4 4 4 4 3 3 3 3 3 3 3 2 1 1 2 2 3 4 4 4 8 10 6 5 6 6 5 5 4 4 4 6 7 6 5 5 4 4 4 4 4
5 5 4 4 4 4 4 4 3 4 4 4 3 3 2 3 4 4 5 5 5 7 7 10 8 5 4 4 5 4 4 3 3 4 4 4 3 3 3 4 4 5 4
5 5 5 4 4 4 4 4 5 5 5 5 5 4 4 4 4 5 6 7 8 10 9 9 8 5 4 4 4 4 3 2 2 2 2 2 2 2 4 5 5 6 6
5 5 5 5 5 4 4 4 5 5 6 6 6 6 6 8 8 6 7 8 9 9 8 8 7 5 4 3 3 2 3 2 2 1 1 0 1 1 2 3 5 6 7
6 6 6 6 6 5 7 8 6 6 6 7 7 7 8 9 11 13 13 11 10 10 9 7 6 6 5 4 3 3 3 2 1 1 0 0 0 1 2 2 4 5 6
6 7 7 7 7 8 10 10 10 7 8 7 7 6 7 8 9 10 13 14 12 10 8 7 8 6 5 5 5 4 3 2 1 0 1 0 1 2 2 3 5 5 6
6 6 7 7 7 8 11 11 10 9 9 9 8 7 8 8 8 9 10 11 10 8 7 6 6 5 5 4 4 4 4 3 2 1 0 0 1 2 2 3 4 5 6
6 6 6 7 7 8 10 10 8 7 8 9 9 9 8 8 10 11 11 11 10 8 10 11 9 8 7 6 5 4 4 3 1 0 0 1 1 2 2 2 2 4 5
5 6 7 7 7 7 8 9 8 6 7 7 7 9 11 10 10 10 9 9 9 6 6 7 8 7 6 6 4 2 3 2 1 0 1 1 0 1 2 2 2 3 3
Wind_Direction
198 198 205 209 209 195 189 190 197 217 222 222 220 216 216 221 221 217 229 224 214 209 210 206 201 197 192 187 183 179 174 168 163 156 148 142 137 134 132 126 123 120 114
198 206 210 213 213 206 200 195 202 212 220 224 240 233 220 223 227 216 216 235 233 215 207 206 203 197 191 186 179 178 175 169 164 159 154 149 145 141 135 129 125 120 114
206 209 209 215 221 210 193 189 192 183 198 225 248 242 213 217 222 225 222 225 235 225 212 203 195 193 189 185 182 182 176 170 167 164 157 152 146 140 134 131 126 121 115
211 209 218 223 214 197 195 197 183 188 201 206 221 238 234 219 230 231 222 222 225 231 221 203 193 191 189 187 186 186 179 172 168 161 155 150 143 137 134 132 129 125 120
227 206 230 233 201 200 203 209 188 183 193 210 215 212 226 246 249 259 243 225 218 211 206 200 196 193 192 190 189 188 180 173 168 160 154 146 140 136 133 132 130 127 121
263 215 232 241 203 207 215 207 198 188 182 177 187 204 221 266 267 265 260 244 224 213 194 181 183 194 192 190 186 184 179 171 164 157 152 146 138 133 131 129 127 122 117
332 255 260 243 211 215 218 203 188 180 187 156 132 165 300 257 249 247 233 166 211 196 169 166 163 172 184 187 185 183 181 173 165 157 151 144 139 136 131 127 125 121 117
346 289 245 240 228 216 209 197 177 177 188 174 158 169 246 272 254 252 219 184 214 169 166 167 162 168 170 178 178 184 179 169 160 154 148 144 142 138 134 132 128 124 120
353 349 329 277 239 210 210 207 197 198 198 193 185 178 190 219 229 277 230 193 177 150 158 128 129 147 145 148 167 165 160 154 154 150 149 146 145 141 139 135 129 125 122
8 12 8 6 334 239 221 223 209 216 197 203 202 209 210 176 184 211 304 165 136 132 145 135 125 115 122 120 123 135 139 136 140 143 145 147 145 139 136 131 128 126 125
10 9 11 10 5 345 294 244 220 221 215 210 201 188 193 210 202 182 201 173 115 49 60 99 105 108 111 110 117 125 125 126 130 133 134 136 134 131 130 130 129 126 125
3 3 4 10 6 352 329 279 237 234 238 231 219 208 197 193 192 181 177 166 149 83 53 63 85 85 91 107 122 124 122 120 122 125 128 129 129 128 128 129 127 127 126
351 349 354 0 357 344 341 333 297 265 251 242 233 229 222 217 177 166 162 151 139 108 76 58 55 82 85 79 106 114 112 111 110 111 113 116 121 125 126 125 125 126 124
333 335 348 357 356 353 355 357 350 327 297 265 251 240 228 217 188 182 170 155 147 131 99 92 61 78 89 85 91 96 103 108 108 107 107 107 108 111 115 114 113 113 113
343 351 359 360 1 1 358 1 5 344 333 315 292 260 233 226 206 200 184 175 163 160 145 127 109 94 95 88 91 93 97 102 103 104 105 107 107 109 112 113 113 112 111
359 358 3 8 10 11 12 16 13 11 28 0 353 359 323 261 219 194 189 181 158 147 137 126 117 121 109 104 98 95 98 105 106 108 110 111 112 114 117 123 127 130 131
3 5 8 13 15 16 20 27 30 31 35 21 13 15 356 343 125 130 130 130 121 124 125 111 104 112 105 105 99 88 90 93 106 112 115 118 121 124 131 135 138 142 148
12 13 20 24 23 26 27 33 39 38 39 32 19 31 32 69 88 101 112 114 112 113 125 123 117 108 101 106 102 98 97 101 110 115 118 124 129 135 146 155 162 167 177
21 20 28 33 31 33 36 34 41 42 43 42 37 46 51 81 89 92 102 106 105 105 108 118 116 104 97 106 104 96 92 91 117 123 124 133 146 162 182 193 198 201 207
28 24 27 34 36 41 44 42 47 48 50 51 50 52 59 76 93 100 102 105 107 108 109 113 114 109 102 102 109 112 105 90 101 110 110 134 163 206 220 220 222 223 226
32 29 35 38 37 40 41 49 57 58 58 59 56 56 66 79 87 98 107 111 113 113 115 117 117 115 114 122 120 118 118 110 85 75 109 143 214 237 244 241 238 236 236
34 39 42 45 44 45 45 52 65 66 63 63 63 61 66 71 82 88 94 100 111 122 125 123 125 128 127 125 118 122 124 122 111 71 143 284 259 258 256 249 250 247 242
45 47 44 49 50 43 49 57 62 70 65 58 59 65 72 71 80 90 87 84 83 91 108 123 129 133 138 146 138 126 122 113 102 95 177 245 302 276 270 263 259 254 248
47 48 48 50 52 42 47 56 62 67 64 55 54 62 75 71 79 92 91 84 77 73 85 99 117 126 132 139 137 131 131 115 89 84 182 263 314 288 294 286 272 266 263
52 46 44 48 52 38 39 50 61 67 64 55 50 54 68 75 78 90 93 90 83 71 72 83 90 97 107 119 128 121 117 112 92 50 147 245 308 306 297 293 294 290 281
60 57 50 43 48 43 36 46 58 72 69 61 52 48 55 71 73 82 92 96 91 83 86 81 75 71 81 91 100 116 135 127 121 159 185 212 286 324 315 299 297 303 295